Tracking 20093 objects as of 16-Dec-2019
HD Live streaming from Space Station
objects crossing your sky now

SL-16 R/B

Track SL-16 R/B now!
10-day predictions
SL-16 R/B is classified as:


NORAD ID: 25400
Int'l Code: 1998-043G
Perigee: 806.6 km
Apogee: 821.6 km
Inclination: 98.6 °
Period: 101.0 minutes
Semi major axis: 7185 km
RCS: 12.0301 m2 (large)
Launch date: July 10, 1998
Source: Commonwealth of Independent States (former USSR) (CIS)
Launch site: TYURATAM MISSILE AND SPACE COMPLEX (TTMTR)

Note: This is a ROCKET BODY
aabbcc
Your satellite tracking list
Your tracking list is empty




NASA's NSSDC Master Catalog

Two Line Element Set (TLE):
1 25400U 98043G   19349.75509314 -.00000009  00000-0  14357-4 0  9999
2 25400  98.5907 284.2589 0010442 147.9174 212.2644 14.25446820114938
Source of the keplerian elements: AFSPC